sat.trackr.live / text

‹ back to catalog

QIANFAN-43

NORAD 62244 · 2024-232H

PAYLOAD ACTIVE UNKNOWN

§ Identity

Operator
Country
PRC
Launch date
2024-12-05
Launch site
TAISC
Launch vehicle
Mass (kg)
RCS (m²)

External: N2YO · Heavens-Above · Gunter

§ Orbital elements

Epoch: 2026-09-22T20:43:13.850400Z

Period
106.59 min
Inclination
89.0169°
Eccentricity
0.0017431
Mean motion
13.51030248 rev/d
Perigee alt
1,055.5 km
Apogee alt
1,081.5 km
Semi-major
7,446.6 km
B*
1.3040e-4
RAAN
12.7635°
Arg perigee
96.9347°
Mean anomaly
263.3788°
Rev number
10,622

§ Raw data

QIANFAN-431 62244U 24232H   26265.86335475  .00000096  00000+0  13040-3 0  99982 62244  89.0169  12.7635 0017431  96.9347 263.3788 13.51030248106226

JSON: /api/v1/satellites/62244 · /tle

For live sub-satellite position, see the globe view (requires WebGL).

§ Visibility from observer

Set your observer location to see the next 7 days of passes ≥ 10°. The values pass through the URL so the page stays shareable.

No JS? Fill the form by hand. The geolocation button needs JavaScript.